EW2295 Weather Reports


time (UTC)temp
C
wind
direction
speed
KPH
gust
KPH
rain 1hr
cm
rain 24hr
cm
rain mn
cm
humidity
%
barometer
mb
20260508113544 16 0 3.2 9.7 0.00 0.00 0.00 62 1018.8
20260508113105 16 0 0.0 14.5 0.00 0.00 0.00 63 1018.8
20260508112545 16 0 1.6 14.5 0.00 0.00 0.00 61 1018.8
20260508112044 16 0 0.0 9.7 0.00 0.00 0.00 64 1018.9
20260508111556 16 0 1.6 12.9 0.00 0.00 0.00 63 1018.9
20260508111045 16 0 0.0 12.9 0.00 0.00 0.00 65 1018.8
20260508110544 16 348 0.0 12.9 0.00 0.00 0.00 64 1019.0
20260508110058 16 0 0.0 12.9 0.00 0.00 0.00 65 1018.9
20260508105542 16 0 4.8 14.5 0.00 0.00 0.00 68 1018.9
20260508105044 15 0 1.6 14.5 0.00 0.00 0.00 68 1018.9
20260508104553 15 351 3.2 14.5 0.00 0.00 0.00 67 1019.0
20260508104044 15 0 4.8 14.5 0.00 0.00 0.00 67 1019.0
20260508103541 15 0 1.6 8.0 0.00 0.00 0.00 66 1019.0
20260508103049 16 0 0.0 6.4 0.00 0.00 0.00 67 1019.0
20260508102541 15 0 0.0 6.4 0.00 0.00 0.00 64 1019.1
20260508102045 15 31 0.0 1.6 0.00 0.00 0.00 64 1018.9
20260508101552 15 0 0.0 8.0 0.00 0.00 0.00 63 1019.0
20260508101043 15 0 1.6 9.7 0.00 0.00 0.00 63 1019.0
20260508100543 15 0 1.6 9.7 0.00 0.00 0.00 66 1019.0
20260508100052 15 0 0.0 8.0 0.00 0.00 0.00 65 1019.0
20260508095542 15 0 0.0 14.5 0.00 0.00 0.00 67 1019.0
20260508095045 14 0 0.0 14.5 0.00 0.00 0.00 65 1019.0
20260508094602 14 352 1.6 14.5 0.00 0.00 0.00 67 1019.1
20260508094044 15 0 0.0 9.7 0.00 0.00 0.00 67 1019.1
20260508093544 15 0 0.0 8.0 0.00 0.00 0.00 68 1019.1
20260508093054 15 0 1.6 8.0 0.00 0.00 0.00 67 1019.1
20260508092544 15 15 0.0 6.4 0.00 0.00 0.00 73 1019.1
20260508092044 14 0 0.0 6.4 0.00 0.00 0.00 72 1019.2
20260508091617 13 0 0.0 8.0 0.00 0.00 0.00 75 1019.1
20260508091043 13 0 0.0 8.0 0.00 0.00 0.00 74 1019.2
20260508090545 13 11 0.0 8.0 0.00 0.00 0.00 74 1019.2
20260508090059 13 5 0.0 8.0 0.00 0.00 0.00 74 1019.1
20260508085543 13 5 0.0 6.4 0.00 0.00 0.00 76 1019.2
20260508085045 12 360 1.6 16.1 0.00 0.00 0.00 78 1019.1
20260508084552 12 352 0.0 16.1 0.00 0.00 0.00 80 1019.2
20260508084043 12 0 3.2 16.1 0.00 0.00 0.00 79 1019.1
20260508083543 12 0 0.0 6.4 0.00 0.00 0.00 78 1019.2
20260508083053 13 0 1.6 6.4 0.00 0.00 0.00 79 1019.2
20260508082542 13 0 0.0 12.9 0.00 0.00 0.00 78 1019.2
20260508082045 13 0 0.0 12.9 0.00 0.00 0.00 79 1019.2
20260508081552 12 20 0.0 6.4 0.00 0.00 0.00 79 1019.3
20260508081042 12 0 0.0 0.0 0.00 0.00 0.00 78 1019.2
20260508080542 12 0 0.0 0.0 0.00 0.00 0.00 78 1019.2
20260508080052 12 0 0.0 0.0 0.00 0.00 0.00 80 1019.2
20260508075541 12 0 0.0 0.0 0.00 0.00 0.00 80 1019.2
20260508075042 12 0 0.0 0.0 0.00 0.00 0.00 83 1019.1
20260508074553 11 0 0.0 0.0 0.00 0.00 0.00 82 1019.0
20260508074043 11 0 0.0 0.0 0.00 0.00 0.00 83 1019.1
20260508073542 11 0 0.0 0.0 0.00 0.00 0.00 85 1019.2
20260508073057 11 0 0.0 0.0 0.00 0.00 0.00 87 1019.3
20260508072542 10 0 0.0 0.0 0.00 0.00 0.00 88 1019.2
20260508072043 10 0 0.0 0.0 0.00 0.00 0.00 90 1019.3
20260508071556 10 0 0.0 0.0 0.00 0.00 0.00 91 1019.2
20260508071041 10 0 0.0 0.0 0.00 0.00 0.00 93 1019.2
20260508070543 9 0 0.0 0.0 0.00 0.00 0.00 94 1019.1
20260508070100 8 0 0.0 0.0 0.00 0.00 0.00 95 1019.2
20260508065543 8 0 0.0 0.0 0.00 0.00 0.00 96 1019.2
20260508065042 8 0 0.0 0.0 0.00 0.00 0.00 96 1019.1
20260508064555 7 0 0.0 0.0 0.00 0.00 0.00 96 1018.9
20260508064042 7 0 0.0 0.0 0.00 0.00 0.00 96 1018.9
20260508063542 7 0 0.0 0.0 0.00 0.00 0.00 97 1018.8
20260508063120 6 0 0.0 0.0 0.00 0.00 0.00 96 1018.7
20260508062542 6 0 0.0 0.0 0.00 0.00 0.00 96 1018.7
20260508062046 6 0 0.0 0.0 0.00 0.00 0.00 96 1018.7
20260508061553 6 0 0.0 0.0 0.00 0.00 0.00 96 1018.6
20260508061046 5 0 0.0 0.0 0.00 0.00 0.00 96 1018.6
20260508060546 5 0 0.0 0.0 0.00 0.00 0.00 96 1018.8
20260508060055 5 0 0.0 0.0 0.00 0.00 0.00 96 1018.7
20260508055543 5 0 0.0 0.0 0.00 0.00 0.00 96 1018.7
20260508055043 5 0 0.0 0.0 0.00 0.00 0.00 96 1018.7
20260508054552 5 0 0.0 0.0 0.00 0.00 0.00 96 1018.6
20260508054043 5 0 0.0 0.0 0.00 0.00 0.00 96 1018.6
20260508053543 5 0 0.0 0.0 0.00 0.00 0.00 96 1018.6
20260508053102 5 0 0.0 0.0 0.00 0.00 0.00 96 1018.6
20260508052545 5 0 0.0 0.0 0.00 0.00 0.00 96 1018.6
20260508052046 4 0 0.0 0.0 0.00 0.00 0.00 96 1018.6
20260508051618 4 0 0.0 0.0 0.00 0.00 0.00 96 1018.6
20260508051047 4 0 0.0 0.0 0.00 0.00 0.00 96 1018.5
20260508050544 4 0 0.0 0.0 0.00 0.00 0.00 96 1018.6
20260508050054 3 0 0.0 0.0 0.00 0.00 0.00 96 1018.5
20260508045546 3 0 0.0 0.0 0.00 0.00 0.00 96 1018.5
20260508045048 3 0 0.0 0.0 0.00 0.00 0.00 96 1018.4
20260508044554 3 0 0.0 0.0 0.00 0.00 0.00 96 1018.3
20260508044046 3 0 0.0 0.0 0.00 0.00 0.00 96 1018.3
20260508043543 2 0 0.0 0.0 0.00 0.00 0.00 96 1018.2
20260508043058 2 0 0.0 0.0 0.00 0.00 0.00 96 1018.2
20260508042544 2 0 0.0 0.0 0.00 0.00 0.00 96 1018.2
20260508042045 2 0 0.0 0.0 0.00 0.00 0.00 96 1018.3
20260508041553 2 0 0.0 0.0 0.00 0.00 0.00 96 1018.2
20260508041047 2 0 0.0 0.0 0.00 0.00 0.00 96 1018.3
20260508040545 2 0 0.0 0.0 0.00 0.00 0.00 96 1018.3
20260508040056 2 0 0.0 0.0 0.00 0.00 0.00 96 1018.3
20260508035546 2 0 0.0 0.0 0.00 0.00 0.00 96 1018.3
20260508035046 2 0 0.0 0.0 0.00 0.00 0.00 96 1018.3
20260508034552 3 0 0.0 0.0 0.00 0.00 0.00 96 1018.2
20260508034043 3 0 0.0 0.0 0.00 0.00 0.00 96 1018.3
20260508033545 2 0 0.0 0.0 0.00 0.00 0.00 96 1018.3
20260508033053 2 0 0.0 0.0 0.00 0.00 0.00 96 1018.4
20260508032546 2 0 0.0 0.0 0.00 0.00 0.00 96 1018.3
20260508032046 3 0 0.0 0.0 0.00 0.00 0.00 96 1018.3
20260508031551 3 0 0.0 0.0 0.00 0.00 0.00 96 1018.2
20260508031045 3 0 0.0 0.0 0.00 0.00 0.00 96 1018.2
20260508030545 3 0 0.0 0.0 0.00 0.00 0.00 95 1018.2
20260508030056 3 0 0.0 0.0 0.00 0.00 0.00 96 1018.2
20260508025544 3 0 0.0 0.0 0.00 0.00 0.00 96 1018.1
20260508025044 3 0 0.0 0.0 0.00 0.00 0.00 95 1018.2
20260508024551 3 0 0.0 0.0 0.00 0.00 0.00 95 1018.2
20260508024047 3 0 0.0 0.0 0.00 0.00 0.00 96 1018.2
20260508023546 3 0 0.0 0.0 0.00 0.00 0.00 95 1018.1
20260508023053 3 0 0.0 0.0 0.00 0.00 0.00 95 1018.2
20260508022545 3 0 0.0 0.0 0.00 0.00 0.00 95 1018.2
20260508022048 3 0 0.0 0.0 0.00 0.00 0.00 96 1018.3
20260508021555 3 0 0.0 0.0 0.00 0.00 0.00 96 1018.3
20260508021043 3 0 0.0 0.0 0.00 0.00 0.00 96 1018.3
20260508020543 3 0 0.0 0.0 0.00 0.00 0.00 96 1018.3
20260508020105 3 0 0.0 0.0 0.00 0.00 0.00 95 1018.3
20260508015543 3 0 0.0 0.0 0.00 0.03 0.00 95 1018.3
20260508015045 3 0 0.0 0.0 0.00 0.03 0.00 95 1018.2
20260508014552 4 0 0.0 0.0 0.00 0.03 0.00 95 1018.2
20260508014047 4 0 0.0 0.0 0.00 0.03 0.00 95 1018.3
20260508013546 4 0 0.0 0.0 0.00 0.03 0.00 95 1018.2
20260508013053 4 0 0.0 0.0 0.00 0.03 0.00 95 1018.2
20260508012544 4 0 0.0 0.0 0.00 0.03 0.00 95 1018.3
20260508012046 4 0 0.0 0.0 0.00 0.03 0.00 95 1018.2
20260508011556 4 0 0.0 0.0 0.00 0.03 0.00 95 1018.2
20260508011043 4 0 0.0 0.0 0.00 0.03 0.00 95 1018.1
20260508010543 5 0 0.0 0.0 0.00 0.03 0.00 95 1018.2
20260508010111 5 0 0.0 0.0 0.00 0.03 0.00 95 1018.2
20260508005544 5 0 0.0 0.0 0.00 0.08 0.00 95 1018.3
20260508005045 5 0 0.0 0.0 0.00 0.08 0.00 95 1018.2
20260508004557 5 0 0.0 0.0 0.00 0.08 0.00 95 1018.3
20260508004047 5 0 0.0 0.0 0.00 0.08 0.00 95 1018.3
20260508003543 5 0 0.0 0.0 0.00 0.08 0.00 95 1018.3
20260508003103 5 0 0.0 0.0 0.00 0.08 0.00 95 1018.4
20260508002544 5 0 0.0 0.0 0.00 0.08 0.00 95 1018.3
20260508002044 5 0 0.0 0.0 0.00 0.08 0.00 95 1018.3
20260508001551 5 0 0.0 0.0 0.00 0.08 0.00 95 1018.4
20260508001044 5 0 0.0 0.0 0.00 0.08 0.00 95 1018.4
20260508000545 5 0 0.0 0.0 0.00 0.08 0.00 95 1018.5
20260508000054 5 0 0.0 0.0 0.00 0.08 0.00 95 1018.5
20260507235544 5 0 0.0 0.0 0.00 0.08 0.00 95 1018.4
20260507235043 5 0 0.0 0.0 0.00 0.08 0.00 95 1018.4
20260507234549 5 0 0.0 0.0 0.00 0.08 0.00 95 1018.5
20260507234046 5 0 0.0 0.0 0.00 0.08 0.00 95 1018.5
20260507233543 5 0 0.0 0.0 0.00 0.08 0.00 95 1018.4
20260507233051 5 0 0.0 0.0 0.00 0.08 0.00 95 1018.6
20260507232543 5 0 0.0 0.0 0.00 0.08 0.00 94 1018.4
20260507232047 5 0 0.0 0.0 0.00 0.08 0.00 95 1018.5
20260507231553 5 0 0.0 0.0 0.00 0.08 0.00 95 1018.5
20260507231048 5 0 0.0 0.0 0.00 0.08 0.00 94 1018.6
20260507230544 5 0 0.0 0.0 0.00 0.08 0.00 94 1018.6
20260507230107 6 0 0.0 0.0 0.00 0.08 0.00 94 1018.5
20260507225546 6 0 0.0 0.0 0.00 0.08 0.00 94 1018.6
20260507225046 6 0 0.0 0.0 0.00 0.08 0.00 94 1018.4
20260507224555 6 0 0.0 0.0 0.00 0.08 0.00 94 1018.5
20260507224043 6 0 0.0 0.0 0.00 0.08 0.00 94 1018.5
20260507223544 6 0 0.0 0.0 0.00 0.08 0.00 94 1018.5
20260507223201 6 0 0.0 0.0 0.00 0.08 0.00 94 1018.6
20260507222544 6 0 0.0 0.0 0.00 0.08 0.00 94 1018.4
20260507222045 6 0 0.0 0.0 0.00 0.08 0.00 94 1018.4
20260507221555 6 0 0.0 0.0 0.00 0.08 0.00 94 1018.4
20260507221046 6 0 0.0 0.0 0.00 0.08 0.00 94 1018.4
20260507220545 6 0 0.0 0.0 0.00 0.08 0.00 94 1018.3
20260507220056 7 0 0.0 0.0 0.00 0.08 0.00 94 1018.3
20260507215544 7 0 0.0 0.0 0.00 0.08 0.08 94 1018.4
20260507215046 7 0 0.0 0.0 0.00 0.08 0.08 94 1018.4
20260507214557 7 0 0.0 0.0 0.00 0.08 0.08 94 1018.3
20260507214045 7 0 0.0 0.0 0.00 0.08 0.08 93 1018.2
20260507213544 7 0 0.0 0.0 0.00 0.08 0.08 93 1018.2
20260507213121 7 0 0.0 0.0 0.00 0.08 0.08 93 1018.3
20260507212545 7 0 0.0 0.0 0.00 0.08 0.08 93 1018.3
20260507212043 7 0 0.0 0.0 0.00 0.08 0.08 93 1018.3
20260507211552 7 0 0.0 0.0 0.00 0.08 0.08 93 1018.3
20260507211043 7 0 0.0 4.8 0.00 0.08 0.08 93 1018.3
20260507210547 7 0 0.0 4.8 0.00 0.08 0.08 93 1018.4
20260507210055 7 0 0.0 4.8 0.00 0.08 0.08 93 1018.4
20260507205543 7 0 0.0 0.0 0.00 0.08 0.08 93 1018.3
20260507205049 7 0 0.0 0.0 0.00 0.08 0.08 92 1018.2
20260507204555 7 0 0.0 0.0 0.00 0.08 0.08 92 1018.2
20260507204045 7 0 0.0 0.0 0.00 0.08 0.08 92 1018.1
20260507203545 7 0 0.0 0.0 0.00 0.08 0.08 92 1018.1
20260507203051 7 0 0.0 0.0 0.00 0.08 0.08 92 1018.1
20260507202544 7 0 0.0 0.0 0.00 0.08 0.08 92 1018.0
20260507202048 7 0 0.0 0.0 0.00 0.08 0.08 92 1018.0
20260507201603 7 0 0.0 0.0 0.00 0.08 0.08 91 1017.8
20260507201044 8 0 0.0 0.0 0.00 0.08 0.08 91 1017.9
20260507200544 8 0 0.0 0.0 0.00 0.08 0.08 91 1017.8
20260507200109 8 0 0.0 0.0 0.00 0.08 0.08 91 1017.8
20260507195545 8 0 0.0 0.0 0.00 0.08 0.08 90 1017.8
20260507195045 8 0 0.0 0.0 0.00 0.08 0.08 90 1017.7
20260507194554 8 0 0.0 0.0 0.00 0.08 0.08 90 1017.8
20260507194047 8 0 0.0 0.0 0.00 0.08 0.08 90 1017.8
20260507193545 8 0 0.0 0.0 0.00 0.08 0.08 90 1017.8
20260507193053 8 0 0.0 0.0 0.00 0.08 0.08 89 1017.8
20260507192545 8 0 0.0 0.0 0.00 0.08 0.08 89 1017.7
20260507192044 9 0 0.0 0.0 0.00 0.08 0.08 88 1017.7
20260507191553 9 0 0.0 0.0 0.00 0.08 0.08 88 1017.6
20260507191045 9 0 0.0 0.0 0.00 0.08 0.08 88 1017.6
20260507190544 9 0 0.0 0.0 0.00 0.08 0.08 87 1017.6
20260507190054 9 0 0.0 3.2 0.00 0.08 0.08 87 1017.6
20260507185545 10 0 0.0 3.2 0.00 0.10 0.08 87 1017.6
20260507185045 10 0 0.0 3.2 0.00 0.10 0.08 86 1017.7
20260507184555 10 0 0.0 6.4 0.00 0.10 0.08 85 1017.7
20260507184044 10 0 0.0 8.0 0.00 0.10 0.08 85 1017.6
20260507183550 10 0 0.0 8.0 0.00 0.10 0.08 84 1017.6
20260507183056 10 0 0.0 6.4 0.00 0.10 0.08 84 1017.5
20260507182543 10 0 0.0 8.0 0.00 0.10 0.08 83 1017.4
20260507182045 10 51 0.0 8.0 0.00 0.10 0.08 83 1017.4
20260507181559 10 24 0.0 14.5 0.00 0.10 0.08 82 1017.4
20260507181047 10 0 0.0 14.5 0.00 0.10 0.08 81 1017.3
20260507180546 11 0 1.6 11.3 0.00 0.10 0.08 80 1017.2
20260507180054 11 0 0.0 11.3 0.00 0.10 0.08 80 1017.4
20260507175545 11 0 1.6 9.7 0.00 0.10 0.08 80 1017.2
20260507175045 11 0 0.0 6.4 0.00 0.10 0.08 80 1017.2
20260507174558 11 0 0.0 8.0 0.00 0.10 0.08 79 1017.2
20260507174044 11 0 0.0 8.0 0.00 0.10 0.08 78 1017.2
20260507173543 11 0 1.6 9.7 0.00 0.10 0.08 78 1017.1
20260507173058 11 0 0.0 9.7 0.00 0.10 0.08 78 1017.2
20260507172548 11 0 1.6 9.7 0.00 0.10 0.08 79 1017.1
20260507172044 11 0 0.0 9.7 0.00 0.10 0.08 79 1017.0
20260507171559 11 0 0.0 9.7 0.00 0.10 0.08 79 1017.1
20260507171045 11 0 1.6 9.7 0.00 0.10 0.08 78 1016.9
20260507170547 12 40 0.0 9.7 0.00 0.10 0.08 79 1016.9
20260507170053 11 0 0.0 17.7 0.00 0.10 0.08 79 1017.0
20260507165543 11 0 0.0 17.7 0.00 0.13 0.08 78 1016.8
20260507165044 12 0 1.6 16.1 0.00 0.13 0.08 77 1016.8
20260507164551 12 0 0.0 16.1 0.00 0.13 0.08 76 1016.8
20260507164045 12 28 3.2 12.9 0.00 0.13 0.08 75 1016.7
20260507163544 12 43 1.6 12.9 0.00 0.13 0.08 75 1016.8
20260507163051 12 39 1.6 11.3 0.00 0.13 0.08 74 1016.8
20260507162545 12 0 0.0 6.4 0.00 0.13 0.08 74 1016.7
20260507162047 12 0 0.0 9.7 0.00 0.13 0.08 73 1016.9
20260507161608 12 0 0.0 9.7 0.00 0.13 0.08 72 1016.8
20260507161044 12 0 1.6 9.7 0.00 0.13 0.08 71 1016.8
20260507160545 12 0 0.0 3.2 0.00 0.13 0.08 65 1016.7
20260507160052 12 0 0.0 8.0 0.00 0.13 0.08 65 1016.7
20260507155543 12 0 1.6 16.1 0.00 0.15 0.08 68 1016.7
20260507155043 12 0 3.2 16.1 0.00 0.15 0.08 68 1016.7
20260507154553 12 18 0.0 16.1 0.00 0.15 0.08 68 1016.7
20260507154045 12 0 0.0 6.4 0.00 0.15 0.08 68 1016.7
20260507153546 12 0 0.0 11.3 0.00 0.15 0.08 69 1016.7
20260507153111 12 0 1.6 16.1 0.00 0.15 0.08 72 1016.6
20260507152544 12 0 0.0 16.1 0.00 0.15 0.08 70 1016.6
20260507152044 12 0 4.8 16.1 0.00 0.15 0.08 70 1016.6
20260507151559 12 0 1.6 14.5 0.00 0.15 0.08 72 1016.6
20260507151043 12 22 1.6 8.0 0.00 0.15 0.08 72 1016.5
20260507150545 12 0 0.0 8.0 0.00 0.15 0.08 71 1016.5
20260507150054 12 0 0.0 1.6 0.00 0.15 0.08 73 1016.6
20260507145543 12 0 0.0 12.9 0.00 0.20 0.08 72 1016.6
20260507145043 12 0 1.6 12.9 0.00 0.20 0.08 71 1016.6
20260507144552 12 0 0.0 12.9 0.00 0.20 0.08 72 1016.6
20260507144045 12 0 0.0 9.7 0.00 0.20 0.08 73 1016.6
20260507143544 12 0 0.0 9.7 0.00 0.20 0.08 71 1016.6
20260507143055 12 329 0.0 12.9 0.00 0.20 0.08 70 1016.5
20260507142544 12 0 0.0 12.9 0.00 0.20 0.08 73 1016.5
20260507142043 12 0 3.2 12.9 0.00 0.20 0.08 71 1016.5
20260507141549 13 0 0.0 12.9 0.00 0.20 0.08 69 1016.6
20260507141044 13 0 1.6 14.5 0.00 0.20 0.08 72 1016.7
20260507140544 12 0 0.0 14.5 0.00 0.20 0.08 73 1016.5
20260507140053 12 9 0.0 8.0 0.00 0.20 0.08 70 1016.7
20260507135547 12 0 1.6 8.0 0.00 0.30 0.08 69 1016.6
20260507135047 12 0 0.0 8.0 0.00 0.30 0.08 72 1016.6
20260507134553 12 0 0.0 11.3 0.00 0.30 0.08 72 1016.7
20260507134043 13 0 1.6 11.3 0.00 0.30 0.08 74 1016.7
20260507133545 12 0 0.0 12.9 0.00 0.30 0.08 73 1016.6
20260507133056 12 313 0.0 12.9 0.00 0.30 0.08 75 1016.5
20260507132545 12 0 0.0 9.7 0.00 0.30 0.08 76 1016.5
20260507132044 12 0 0.0 12.9 0.00 0.30 0.08 78 1016.4
20260507131551 12 0 3.2 12.9 0.00 0.30 0.08 77 1016.5
20260507131046 12 0 0.0 12.9 0.00 0.30 0.08 78 1016.4
20260507130544 12 349 0.0 14.5 0.00 0.30 0.08 76 1016.4
20260507130100 12 0 3.2 14.5 0.00 0.30 0.08 76 1016.4
20260507125543 12 0 1.6 9.7 0.00 0.36 0.08 71 1016.3
20260507125043 12 0 0.0 0.0 0.00 0.36 0.08 74 1016.4
20260507124618 12 0 0.0 12.9 0.00 0.36 0.08 73 1016.3
20260507124046 12 0 0.0 12.9 0.00 0.36 0.08 74 1016.4
20260507123546 12 355 0.0 12.9 0.00 0.36 0.08 76 1016.4
20260507123105 12 0 3.2 9.7 0.00 0.36 0.08 77 1016.3
20260507122545 12 0 0.0 8.0 0.00 0.36 0.08 77 1016.2
20260507122045 12 0 0.0 8.0 0.00 0.36 0.08 77 1016.3
20260507121558 12 0 0.0 17.7 0.00 0.36 0.08 78 1016.2
20260507121042 12 0 1.6 17.7 0.00 0.36 0.08 76 1016.3
20260507120547 13 348 3.2 17.7 0.00 0.36 0.08 76 1016.2
20260507120055 12 0 0.0 9.7 0.00 0.36 0.08 79 1016.3
20260507115546 12 0 0.0 9.7 0.00 0.41 0.08 77 1016.3
20260507115045 11 0 0.0 6.4 0.00 0.41 0.08 80 1016.3
20260507114555 11 0 0.0 9.7 0.00 0.41 0.08 80 1016.4
20260507114044 11 0 1.6 9.7 0.00 0.41 0.08 82 1016.4